Findlay, OH

11:39 AM EDT on August 27, 2016 (GMT -0400)
Findlay

Weather History for KFDY - November, 2011

Change the Weather History Date:

Friday, November 11, 2011

  Actual Average Record
Temperature  
Mean Temperature 36 °F -  
Max Temperature 43 °F 46 °F 72 °F (1964)
Min Temperature 30 °F 33 °F 19 °F (1952)
Degree Days  
Heating Degree Days 28    
Moisture  
Dew Point 28 °F    
Average Humidity 74    
Maximum Humidity 96    
Minimum Humidity 49    
Precipitation  
Precipitation 0.00 in - - ()
Sea Level Pressure  
Sea Level Pressure 29.96 in    
Wind  
Wind Speed 13 mph (SW)    
Max Wind Speed 17 mph    
Max Gust Speed 24 mph    
Visibility 8 miles    
Events Snow    
Averages and records for this station are not official NWS values.
T = Trace of Precipitation, MM = Missing Value Source: NWS Daily Summary

Daily Weather History Graph

Daily Weather History Graph

Search for Another Location

Airport or City:

Trip Planner

Search our weather history database for the weather conditions in past years. The results will help you decide how hot, cold, wet, or windy it might be!

Date:

Astronomy

Nov. 11, 2011 Rise Set
Actual Time 7:17 AM EST 5:19 PM EST
Civil Twilight 6:47 AM EST 5:48 PM EST
Nautical Twilight 6:14 AM EST 6:21 PM EST
Astronomical Twilight 5:42 AM EST 6:54 PM EST
Moon 5:47 PM EST (11/11) 8:05 AM EST (11/11)
Length of Visible Light 11h 01m
Length of Day
10h 02m
Full, 99% of the Moon is Illuminated
Nov 11
Full
Nov 18
Last Quarter
Nov 25
New
Dec 2
First Quarter
Dec 10
Full

Hourly Weather History & Observations

Time (EST) Temp. Windchill Dew Point Humidity Pressure Visibility Wind Dir Wind Speed Gust Speed Precip Events Conditions
12:41 AM 35.6 °F 26.6 °F 30.2 °F 81% 29.93 in 8.0 mi West 13.8 mph 24.2 mph N/A   Overcast
12:53 AM 34.0 °F 24.2 °F 32.0 °F 92% 29.93 in 6.0 mi West 15.0 mph - 0.00 in Snow Light Snow
1:53 AM 33.1 °F 23.0 °F 32.0 °F 96% 29.94 in 2.5 mi West 15.0 mph - 0.00 in Snow Light Snow
2:06 AM 33.8 °F 24.3 °F 32.0 °F 93% 29.93 in 4.0 mi West 13.8 mph - 0.00 in Snow Light Snow
2:53 AM 34.0 °F 25.0 °F 32.0 °F 92% 29.95 in 6.0 mi West 12.7 mph - 0.00 in   Overcast
3:53 AM 34.0 °F 25.5 °F 32.0 °F 92% 29.94 in 8.0 mi West 11.5 mph - 0.00 in   Overcast
4:53 AM 34.0 °F 24.6 °F 30.9 °F 89% 29.96 in 9.0 mi West 13.8 mph - N/A   Overcast
5:53 AM 35.1 °F 26.9 °F 30.9 °F 85% 29.97 in 8.0 mi West 11.5 mph - N/A   Overcast
7:53 AM 30.9 °F 22.2 °F 28.9 °F 92% 30.01 in 6.0 mi WSW 10.4 mph - N/A   Scattered Clouds
8:53 AM 32.0 °F 22.1 °F 30.0 °F 92% 30.02 in 7.0 mi WSW 13.8 mph - N/A   Mostly Cloudy
11:53 AM 42.1 °F 34.2 °F 28.9 °F 60% 30.02 in 10.0 mi WSW 16.1 mph - N/A   Clear
12:53 PM 43.0 °F 35.1 °F 26.1 °F 51% 30.00 in 10.0 mi WSW 17.3 mph - N/A   Partly Cloudy
1:53 PM 42.1 °F 34.2 °F 24.1 °F 49% 29.99 in 10.0 mi WSW 16.1 mph - N/A   Partly Cloudy
2:53 PM 42.1 °F 34.9 °F 25.0 °F 51% 29.98 in 10.0 mi SW 13.8 mph 20.7 mph N/A   Partly Cloudy
3:53 PM 42.1 °F 35.2 °F 25.0 °F 51% 29.98 in 10.0 mi SW 12.7 mph - N/A   Partly Cloudy
4:53 PM 39.9 °F 32.9 °F 25.0 °F 55% 29.97 in 10.0 mi SW 11.5 mph - N/A   Mostly Cloudy
5:53 PM 37.9 °F 33.5 °F 27.0 °F 65% 29.96 in 10.0 mi South 5.8 mph - N/A   Overcast
6:53 PM 34.0 °F 28.0 °F 27.0 °F 75% 29.96 in 10.0 mi South 6.9 mph - N/A   Clear
7:53 PM 33.1 °F 25.5 °F 27.0 °F 78% 29.95 in 10.0 mi South 9.2 mph - N/A   Clear
8:53 PM 35.1 °F 27.4 °F 27.0 °F 72% 29.94 in 10.0 mi South 10.4 mph - N/A   Clear
9:53 PM 36.0 °F 27.5 °F 27.0 °F 70% 29.92 in 10.0 mi South 12.7 mph - N/A   Clear
10:53 PM 37.9 °F 30.5 °F 26.1 °F 62% 29.89 in 10.0 mi South 11.5 mph - N/A   Clear
11:53 PM 37.9 °F 30.5 °F 26.1 °F 62% 29.87 in 10.0 mi South 11.5 mph - N/A   Clear